SL-14 DEB, 45292

Orbit data source: Space-Track

SL-14 DEB, 45292 is space debris in LEO originally from a launch on Thu, 15 Aug 1991 UTC launched from the Plesetsk Missile And Space Complex (PKMTR). Debris objects in space refer to the collection of defunct objects orbiting the Earth. Examples of debris include non-operational satellites, rocket bodies, and fragments generated from explosions, collisions, or faulty payload assembly.

Loading next visibility...
Identifier
45292, 1991-056AE
Orbit
LEO
Last TLE update
21 hours ago
Origin
Manufacturer
Unknown
Mission
Spacecraft
Bus & Motor
Unknown
Mass
Unknown
Launch date (UTC)
1991-08-15 (34 years ago)
Launch vehicle
Unknown
Launch site
Plesetsk Missile And Space Complex (PKMTR)
Object type
Payload
Rocket body
Debris
Shape & HBR
Unknown
Radar Cross Section
Small (<0.1 m²)

Expand to show TLE details & history

TLE from 21 hours ago
0 SL-14 DEB
1 45292U 91056AE  25181.57207562  .00002748  00000-0  49115-2 0  9997
2 45292  82.6306  10.0339 0098027  16.8621 343.5733 13.39696449260410
Epoch: 2025-06-30T13:43Z
TLE epoch observation values (Epoch: 2025-06-30T13:43:47.333Z)
Latitude
-0.00008°
Longitude
-114.79329°
Altitude
1,042.885 km
Speed
7.365 km/s
True Right ascension
00h 40m 08s
True Declination
0° 00' 00"
Sunlit
Object was in daylight at epoch
Visualization orbit readout
Latitude
-23.48401°
Longitude
67.78312°
Altitude
1,191.643 km
Speed
7.222 km/s
Apparent Right ascension
11h 43m 01s
Apparent Declination
-32° 28' 11"
Sunlit
Object is in daylight
Visualization observer readout
Local Sidereal Time
22:05:56
Azimuth
283.262° WNW
Elevation
-69.126°
Doppler factor
1
Orbital elements
Apogee altitude
1,181 km
Perigee altitude
1,034.239 km
Semi-major axis
7,485.757 km
Eccentricity
0.0098
Inclination
82.6306°
RAAN
10.0339°
Arg. of periapsis
16.8621°
True anomaly
Unknown
Mean anomaly
343.5733°
Eccentric anomaly
Unknown
Mean motion
3.35112 °/min
Orbital period
107.43 mins
BSTAR
0.0049115
Loading maneuver chart data...
Loading SW <> Apogee altitude chart data...
Loading historical data...
Loading historical data...
Loading historical data...
Loading historical data...
Loading historical data...
Loading historical data...
Loading historical data...

SL-14 DEB Visibility forecast

Observer location: undefined°, undefined°

Span
Click to sort rows by Start time (UTC) header in descending order
Start Az.
Max El. time (UTC)
Max El. Az.
Max El.
End time (UTC)
End Az.
12 mins2025-07-01 13:07:29.268Z179.222° S2025-07-01 13:13:29.268Z105.41° ESE44.261°2025-07-01 13:19:29.268Z10.931° NNE
6 mins2025-07-01 15:00:29.268Z271.134° WNW2025-07-01 15:02:29.268Z291.731° WNW15.621°2025-07-01 15:06:29.268Z330.113° NNW
5 mins2025-07-01 22:37:29.268Z49.083° ENE2025-07-01 22:39:29.268Z67.837° E14.263°2025-07-01 22:42:29.268Z93.94° ESE
13 mins2025-07-02 00:22:29.268Z353.299° N2025-07-02 00:28:29.268Z99.325° ESE44.973°2025-07-02 00:35:29.268Z173.493° S
5 mins2025-07-02 02:13:29.268Z301.687° NW2025-07-02 02:15:29.268Z283.589° WNW14.254°2025-07-02 02:18:29.268Z256.626° W
|